Time,TemperatureF,DewpointF,PressureIn,WindDirection,WindDirectionDegrees,WindSpeedMPH,WindSpeedGustMPH,Humidity,HourlyPrecipIn,Conditions,Clouds,dailyrainin,SoftwareType,DateUTC
2013-07-29 00:04:00,75.4,71.9,29.91,NW,315,0.0,0.0,89,0.00,CLR,,0.00,WeatherDisplay:10.37,2013-07-29 05:04:00,
2013-07-29 00:09:00,75.2,71.7,29.91,NW,315,0.0,0.0,89,0.00,CLR,,0.00,WeatherDisplay:10.37,2013-07-29 05:09:00,
2013-07-29 00:14:00,75.0,71.6,29.91,NW,315,0.0,0.0,89,0.00,CLR,,0.00,WeatherDisplay:10.37,2013-07-29 05:14:00,
2013-07-29 00:19:00,74.8,71.4,29.91,NW,315,0.0,0.0,89,0.00,CLR,,0.00,WeatherDisplay:10.37,2013-07-29 05:19:00,
2013-07-29 00:24:00,74.8,71.4,29.91,NW,315,0.0,0.0,89,0.00,CLR,,0.00,WeatherDisplay:10.37,2013-07-29 05:24:00,
2013-07-29 00:29:00,74.7,71.5,29.91,NW,315,0.0,0.0,90,0.00,CLR,,0.00,WeatherDisplay:10.37,2013-07-29 05:29:00,
2013-07-29 00:34:00,74.7,71.5,29.91,NW,315,0.0,0.0,90,0.00,CLR,,0.00,WeatherDisplay:10.37,2013-07-29 05:34:00,
2013-07-29 00:39:00,74.5,71.7,29.91,NW,315,0.0,0.0,91,0.00,CLR,,0.00,WeatherDisplay:10.37,2013-07-29 05:39:00,
2013-07-29 00:44:00,74.5,71.7,29.91,NW,315,0.0,0.0,91,0.00,CLR,,0.00,WeatherDisplay:10.37,2013-07-29 05:44:00,
2013-07-29 00:49:00,74.5,71.7,29.91,NW,315,0.0,0.0,91,0.00,CLR,,0.00,WeatherDisplay:10.37,2013-07-29 05:49:00,
2013-07-29 00:54:00,74.5,71.7,29.91,NW,315,0.0,0.0,91,0.00,CLR,,0.00,WeatherDisplay:10.37,2013-07-29 05:54:00,
2013-07-29 00:59:00,74.5,72.0,29.91,NW,315,0.0,0.0,92,0.00,CLR,,0.00,WeatherDisplay:10.37,2013-07-29 05:59:00,
2013-07-29 01:04:00,74.5,72.0,29.91,NW,315,0.0,0.0,92,0.00,CLR,,0.00,WeatherDisplay:10.37,2013-07-29 06:04:00,
2013-07-29 01:09:00,74.5,72.0,29.91,NW,315,0.0,0.0,92,0.00,CLR,,0.00,WeatherDisplay:10.37,2013-07-29 06:09:00,
2013-07-29 01:14:00,74.3,71.8,29.91,NW,315,0.0,0.0,92,0.00,CLR,,0.00,WeatherDisplay:10.37,2013-07-29 06:14:00,
2013-07-29 01:19:00,74.3,72.1,29.91,NW,315,0.0,0.0,93,0.00,CLR,,0.00,WeatherDisplay:10.37,2013-07-29 06:19:00,
2013-07-29 01:24:00,74.5,72.6,29.91,NW,315,0.0,0.0,94,0.00,CLR,,0.00,WeatherDisplay:10.37,2013-07-29 06:24:00,
2013-07-29 01:29:00,74.5,72.6,29.91,NW,315,0.0,0.0,94,0.00,CLR,,0.00,WeatherDisplay:10.37,2013-07-29 06:29:00,
2013-07-29 01:34:00,74.5,73.0,29.91,NW,315,0.0,0.0,95,0.00,CLR,,0.00,WeatherDisplay:10.37,2013-07-29 06:34:00,
2013-07-29 01:39:00,74.5,73.0,29.91,NW,315,0.0,0.0,95,0.00,CLR,,0.00,WeatherDisplay:10.37,2013-07-29 06:39:00,
2013-07-29 01:44:00,74.5,73.3,29.90,NW,315,0.0,0.0,96,0.00,CLR,,0.00,WeatherDisplay:10.37,2013-07-29 06:44:00,
2013-07-29 01:49:00,74.5,73.3,29.91,NW,315,0.0,0.0,96,0.00,CLR,,0.00,WeatherDisplay:10.37,2013-07-29 06:49:00,
2013-07-29 01:54:00,74.5,73.3,29.91,NW,315,0.0,0.0,96,0.00,CLR,,0.00,WeatherDisplay:10.37,2013-07-29 06:54:00,
2013-07-29 01:59:00,74.5,73.3,29.91,NW,315,0.0,0.0,96,0.00,CLR,,0.00,WeatherDisplay:10.37,2013-07-29 06:59:00,
2013-07-29 02:04:00,74.5,73.3,29.91,NW,315,0.0,0.0,96,0.00,CLR,,0.00,WeatherDisplay:10.37,2013-07-29 07:04:00,
2013-07-29 02:09:00,74.3,73.1,29.91,NW,315,0.0,0.0,96,0.00,CLR,,0.00,WeatherDisplay:10.37,2013-07-29 07:09:00,
2013-07-29 02:14:00,74.5,73.3,29.91,NW,315,0.0,0.0,96,0.00,CLR,,0.00,WeatherDisplay:10.37,2013-07-29 07:14:00,
2013-07-29 02:19:00,74.5,73.3,29.91,NW,315,0.0,0.0,96,0.00,CLR,,0.00,WeatherDisplay:10.37,2013-07-29 07:19:00,
2013-07-29 02:24:00,74.5,73.6,29.91,NW,315,0.0,0.0,97,0.00,CLR,,0.00,WeatherDisplay:10.37,2013-07-29 07:24:00,
2013-07-29 02:29:00,74.3,73.4,29.91,NW,315,0.0,0.0,97,0.00,CLR,,0.00,WeatherDisplay:10.37,2013-07-29 07:29:00,
2013-07-29 02:34:00,74.3,73.4,29.91,NW,315,0.0,0.0,97,0.00,CLR,,0.00,WeatherDisplay:10.37,2013-07-29 07:34:00,
2013-07-29 02:39:00,74.3,73.4,29.91,NW,315,0.0,0.0,97,0.00,CLR,,0.00,WeatherDisplay:10.37,2013-07-29 07:39:00,
2013-07-29 02:44:00,74.1,73.2,29.90,NW,315,0.0,0.0,97,0.00,CLR,,0.00,WeatherDisplay:10.37,2013-07-29 07:44:00,
2013-07-29 02:49:00,74.1,73.2,29.90,NW,315,0.0,0.0,97,0.00,CLR,,0.00,WeatherDisplay:10.37,2013-07-29 07:49:00,
2013-07-29 02:54:00,74.1,73.2,29.91,NW,315,0.0,0.0,97,0.00,CLR,,0.00,WeatherDisplay:10.37,2013-07-29 07:54:00,
2013-07-29 02:59:00,74.1,73.5,29.91,NW,315,0.0,0.0,98,0.00,CLR,,0.00,WeatherDisplay:10.37,2013-07-29 07:59:00,
2013-07-29 03:04:00,74.1,73.5,29.91,NW,315,0.0,0.0,98,0.00,CLR,,0.00,WeatherDisplay:10.37,2013-07-29 08:04:00,
2013-07-29 03:09:00,73.9,73.3,29.91,NW,315,0.0,0.0,98,0.00,CLR,,0.00,WeatherDisplay:10.37,2013-07-29 08:09:00,
2013-07-29 03:14:00,73.9,73.3,29.91,NW,315,0.0,0.0,98,0.00,CLR,,0.00,WeatherDisplay:10.37,2013-07-29 08:14:00,
2013-07-29 03:19:00,73.9,73.3,29.91,NW,315,0.0,0.0,98,0.00,CLR,,0.00,WeatherDisplay:10.37,2013-07-29 08:19:00,
2013-07-29 03:24:00,73.9,73.3,29.91,NW,315,0.0,0.0,98,0.00,CLR,,0.00,WeatherDisplay:10.37,2013-07-29 08:24:00,
2013-07-29 03:29:00,73.9,73.6,29.90,NW,315,0.0,0.0,99,0.00,CLR,,0.00,WeatherDisplay:10.37,2013-07-29 08:29:00,
2013-07-29 03:34:00,73.8,73.5,29.91,NW,315,0.0,0.0,99,0.00,CLR,,0.00,WeatherDisplay:10.37,2013-07-29 08:34:00,
2013-07-29 03:40:00,73.8,73.5,29.91,NW,315,0.0,0.0,99,0.00,CLR,,0.00,WeatherDisplay:10.37,2013-07-29 08:40:00,
2013-07-29 03:45:00,73.8,73.5,29.91,NW,315,0.0,0.0,99,0.00,CLR,,0.00,WeatherDisplay:10.37,2013-07-29 08:45:00,
2013-07-29 03:50:00,73.8,73.5,29.91,NW,315,0.0,0.0,99,0.00,CLR,,0.00,WeatherDisplay:10.37,2013-07-29 08:50:00,
2013-07-29 03:54:00,34.3,34.1,30.08,West,270,2.2,2.2,99,0.00,,,0.05,Cumulus v1.9.2,2013-07-29 08:54:00,
2013-07-29 03:55:00,73.8,73.5,29.91,NW,315,0.0,0.0,99,0.00,CLR,,0.00,WeatherDisplay:10.37,2013-07-29 08:55:00,
2013-07-29 04:00:00,73.8,73.5,29.91,NW,315,0.0,0.0,99,0.00,CLR,,0.00,WeatherDisplay:10.37,2013-07-29 09:00:00,
2013-07-29 04:05:00,73.8,73.5,29.91,NW,315,0.0,0.0,99,0.00,CLR,,0.00,WeatherDisplay:10.37,2013-07-29 09:05:00,
2013-07-29 04:10:00,73.8,73.5,29.91,NW,315,0.0,0.0,99,0.00,CLR,,0.00,WeatherDisplay:10.37,2013-07-29 09:10:00,
2013-07-29 04:15:00,73.8,73.5,29.91,NW,315,0.0,0.0,99,0.00,CLR,,0.00,WeatherDisplay:10.37,2013-07-29 09:15:00,
2013-07-29 04:20:00,73.8,73.5,29.91,NW,315,0.0,0.0,99,0.00,CLR,,0.00,WeatherDisplay:10.37,2013-07-29 09:20:00,
2013-07-29 04:24:00,34.7,34.4,30.12,West,270,2.2,2.2,99,0.00,,,0.05,Cumulus v1.9.2,2013-07-29 09:24:00,
2013-07-29 04:25:00,73.8,73.5,29.91,NW,315,0.0,0.0,99,0.00,CLR,,0.00,WeatherDisplay:10.37,2013-07-29 09:25:00,
2013-07-29 04:30:00,73.8,73.5,29.91,NW,315,0.0,0.0,99,0.00,CLR,,0.00,WeatherDisplay:10.37,2013-07-29 09:30:00,
2013-07-29 04:35:00,73.6,73.3,29.91,NW,315,0.0,0.0,99,0.00,CLR,,0.00,WeatherDisplay:10.37,2013-07-29 09:35:00,
2013-07-29 04:40:00,73.6,73.3,29.91,NW,315,0.0,0.0,99,0.00,CLR,,0.00,WeatherDisplay:10.37,2013-07-29 09:40:00,
2013-07-29 04:45:00,73.6,73.3,29.91,NW,315,0.0,0.0,99,0.00,CLR,,0.00,WeatherDisplay:10.37,2013-07-29 09:45:00,
2013-07-29 04:50:00,73.6,73.3,29.92,NW,315,0.0,0.0,99,0.00,CLR,,0.00,WeatherDisplay:10.37,2013-07-29 09:50:00,
2013-07-29 04:54:00,34.5,34.3,30.13,North,360,1.6,1.6,99,0.00,,,0.05,Cumulus v1.9.2,2013-07-29 09:54:00,
2013-07-29 04:55:00,73.6,73.3,29.91,NW,315,0.0,0.0,99,0.00,CLR,,0.00,WeatherDisplay:10.37,2013-07-29 09:55:00,
2013-07-29 05:00:00,73.6,73.3,29.91,NW,315,0.0,0.0,99,0.00,CLR,,0.00,WeatherDisplay:10.37,2013-07-29 10:00:00,
2013-07-29 05:05:00,73.6,73.3,29.92,NW,315,0.0,0.0,99,0.00,CLR,,0.00,WeatherDisplay:10.37,2013-07-29 10:05:00,
2013-07-29 05:10:00,73.6,73.3,29.92,NW,315,0.0,0.0,99,0.00,CLR,,0.00,WeatherDisplay:10.37,2013-07-29 10:10:00,
2013-07-29 05:15:00,73.6,73.3,29.93,NW,315,0.0,0.0,99,0.00,CLR,,0.00,WeatherDisplay:10.37,2013-07-29 10:15:00,
2013-07-29 05:20:00,73.6,73.3,29.92,NW,315,0.0,0.0,99,0.00,CLR,,0.00,WeatherDisplay:10.37,2013-07-29 10:20:00,
2013-07-29 05:24:00,34.7,34.4,30.14,SW,225,3.1,3.1,99,0.00,,,0.05,Cumulus v1.9.2,2013-07-29 10:24:00,
2013-07-29 05:25:00,73.6,73.3,29.92,NW,315,0.0,0.0,99,0.00,CLR,,0.00,WeatherDisplay:10.37,2013-07-29 10:25:00,
2013-07-29 05:30:00,73.6,73.3,29.93,NW,315,0.0,0.0,99,0.00,CLR,,0.00,WeatherDisplay:10.37,2013-07-29 10:30:00,
2013-07-29 05:35:00,73.6,73.3,29.92,NW,315,0.0,0.0,99,0.00,CLR,,0.00,WeatherDisplay:10.37,2013-07-29 10:35:00,
2013-07-29 05:40:00,73.6,73.3,29.93,NW,315,0.0,0.0,99,0.00,CLR,,0.00,WeatherDisplay:10.37,2013-07-29 10:40:00,
2013-07-29 05:46:00,73.6,73.3,29.93,NW,315,0.0,0.0,99,0.00,CLR,,0.00,WeatherDisplay:10.37,2013-07-29 10:46:00,
2013-07-29 05:51:00,73.8,73.5,29.93,NW,315,0.0,0.0,99,0.00,CLR,,0.00,WeatherDisplay:10.37,2013-07-29 10:51:00,
2013-07-29 05:54:00,34.9,34.6,30.14,North,360,1.6,1.6,99,0.00,,,0.05,Cumulus v1.9.2,2013-07-29 10:54:00,
2013-07-29 05:56:00,73.8,73.5,29.93,NW,315,0.0,0.0,99,0.00,CLR,,0.00,WeatherDisplay:10.37,2013-07-29 10:56:00,
2013-07-29 06:02:00,73.9,73.6,29.94,NW,315,0.0,0.0,99,0.00,CLR,,0.00,WeatherDisplay:10.37,2013-07-29 11:02:00,
2013-07-29 06:07:00,74.1,73.8,29.93,NW,315,0.0,0.0,99,0.00,CLR,,0.00,WeatherDisplay:10.37,2013-07-29 11:07:00,
2013-07-29 06:12:00,74.3,74.0,29.94,NW,315,0.0,0.0,99,0.00,CLR,,0.00,WeatherDisplay:10.37,2013-07-29 11:12:00,
2013-07-29 06:17:00,74.3,74.0,29.94,NW,315,0.0,0.0,99,0.00,CLR,,0.00,WeatherDisplay:10.37,2013-07-29 11:17:00,
2013-07-29 06:22:00,74.5,74.2,29.94,NW,315,0.0,0.0,99,0.00,CLR,,0.00,WeatherDisplay:10.37,2013-07-29 11:22:00,
2013-07-29 06:24:00,35.1,34.8,30.14,SW,225,1.6,1.6,99,0.00,,,0.05,Cumulus v1.9.2,2013-07-29 11:24:00,
2013-07-29 06:27:00,74.5,74.2,29.94,NW,315,0.0,0.0,99,0.00,CLR,,0.00,WeatherDisplay:10.37,2013-07-29 11:27:00,
2013-07-29 06:33:00,74.5,74.2,29.94,NW,315,0.0,0.0,99,0.00,CLR,,0.00,WeatherDisplay:10.37,2013-07-29 11:33:00,
2013-07-29 06:38:00,74.7,74.4,29.95,NW,315,0.0,0.0,99,0.00,CLR,,0.00,WeatherDisplay:10.37,2013-07-29 11:38:00,
2013-07-29 06:43:00,74.8,74.5,29.95,NW,315,0.0,0.0,99,0.00,CLR,,0.00,WeatherDisplay:10.37,2013-07-29 11:43:00,
2013-07-29 06:48:00,75.0,74.7,29.95,NW,315,0.0,0.0,99,0.00,CLR,,0.00,WeatherDisplay:10.37,2013-07-29 11:48:00,
2013-07-29 06:53:00,75.0,74.7,29.95,NW,315,0.0,0.0,99,0.00,CLR,,0.00,WeatherDisplay:10.37,2013-07-29 11:53:00,
2013-07-29 06:54:00,35.4,35.2,30.12,SW,225,6.0,6.0,99,0.01,,,0.06,Cumulus v1.9.2,2013-07-29 11:54:00,
2013-07-29 06:59:00,75.4,75.1,29.95,NW,315,0.0,0.0,99,0.00,CLR,,0.00,WeatherDisplay:10.37,2013-07-29 11:59:00,
2013-07-29 07:04:00,75.4,75.1,29.95,NW,315,0.0,0.0,99,0.00,CLR,,0.00,WeatherDisplay:10.37,2013-07-29 12:04:00,
2013-07-29 07:09:00,75.6,75.3,29.96,NW,315,0.0,0.0,99,0.00,CLR,,0.00,WeatherDisplay:10.37,2013-07-29 12:09:00,
2013-07-29 07:14:00,75.7,75.4,29.96,NW,315,0.0,0.0,99,0.00,CLR,,0.00,WeatherDisplay:10.37,2013-07-29 12:14:00,
2013-07-29 07:19:00,75.9,75.6,29.96,NW,315,0.0,0.0,99,0.00,CLR,,0.00,WeatherDisplay:10.37,2013-07-29 12:19:00,
2013-07-29 07:24:00,76.1,75.8,29.96,NW,315,0.0,0.0,99,0.00,CLR,,0.00,WeatherDisplay:10.37,2013-07-29 12:24:00,
2013-07-29 07:29:00,76.3,76.0,29.96,NW,315,0.0,0.0,99,0.00,CLR,,0.00,WeatherDisplay:10.37,2013-07-29 12:29:00,
2013-07-29 07:34:00,76.5,76.2,29.96,NW,315,0.0,0.0,99,0.00,CLR,,0.00,WeatherDisplay:10.37,2013-07-29 12:34:00,
2013-07-29 07:39:00,76.6,76.3,29.97,South,180,1.1,0.0,99,0.00,CLR,,0.00,WeatherDisplay:10.37,2013-07-29 12:39:00,
2013-07-29 07:44:00,76.8,76.5,29.97,South,180,0.0,0.0,99,0.00,CLR,,0.00,WeatherDisplay:10.37,2013-07-29 12:44:00,
2013-07-29 07:49:00,77.0,76.7,29.97,South,180,0.0,0.0,99,0.00,CLR,,0.00,WeatherDisplay:10.37,2013-07-29 12:49:00,
2013-07-29 07:54:00,77.2,76.9,29.97,South,180,0.0,0.0,99,0.00,CLR,,0.00,WeatherDisplay:10.37,2013-07-29 12:54:00,
2013-07-29 07:59:00,77.4,77.1,29.97,South,180,0.0,0.0,99,0.00,CLR,,0.00,WeatherDisplay:10.37,2013-07-29 12:59:00,
2013-07-29 08:04:00,77.7,77.4,29.98,South,180,0.0,0.0,99,0.00,CLR,,0.00,WeatherDisplay:10.37,2013-07-29 13:04:00,
2013-07-29 08:09:00,78.1,77.8,29.98,South,180,0.0,0.0,99,0.00,CLR,,0.00,WeatherDisplay:10.37,2013-07-29 13:09:00,
2013-07-29 08:14:00,78.4,78.1,29.98,South,180,0.0,0.0,99,0.00,CLR,,0.00,WeatherDisplay:10.37,2013-07-29 13:14:00,
2013-07-29 08:19:00,78.8,78.5,29.98,NE,45,1.1,0.0,99,0.00,CLR,,0.00,WeatherDisplay:10.37,2013-07-29 13:19:00,
2013-07-29 08:24:00,79.0,78.7,29.98,NE,45,0.0,0.0,99,0.00,CLR,,0.00,WeatherDisplay:10.37,2013-07-29 13:24:00,
2013-07-29 08:29:00,79.3,79.0,29.98,NE,45,0.0,0.0,99,0.00,CLR,,0.00,WeatherDisplay:10.37,2013-07-29 13:29:00,
2013-07-29 08:34:00,79.5,79.2,29.98,NE,45,1.1,0.0,99,0.00,CLR,,0.00,WeatherDisplay:10.37,2013-07-29 13:34:00,
2013-07-29 08:39:00,79.9,79.6,29.99,East,90,0.0,0.0,99,0.00,CLR,,0.00,WeatherDisplay:10.37,2013-07-29 13:39:00,
2013-07-29 08:44:00,80.4,80.1,29.99,NE,45,0.0,0.0,99,0.00,CLR,,0.00,WeatherDisplay:10.37,2013-07-29 13:44:00,
2013-07-29 08:49:00,81.0,80.7,29.99,West,270,0.0,0.0,99,0.00,CLR,,0.00,WeatherDisplay:10.37,2013-07-29 13:49:00,
2013-07-29 08:54:00,81.1,80.8,29.99,SW,225,0.0,0.0,99,0.00,CLR,,0.00,WeatherDisplay:10.37,2013-07-29 13:54:00,
2013-07-29 08:59:00,82.0,81.1,29.99,North,0,0.0,0.0,97,0.00,CLR,,0.00,WeatherDisplay:10.37,2013-07-29 13:59:00,
2013-07-29 09:04:00,82.4,80.8,29.99,SW,225,1.1,1.1,95,0.00,CLR,,0.00,WeatherDisplay:10.37,2013-07-29 14:04:00,
2013-07-29 09:09:00,82.8,80.2,29.99,East,90,2.3,0.0,92,0.00,CLR,,0.00,WeatherDisplay:10.37,2013-07-29 14:09:00,
2013-07-29 09:14:00,83.1,80.2,29.99,NNE,22,2.3,0.0,91,0.00,CLR,,0.00,WeatherDisplay:10.37,2013-07-29 14:14:00,
2013-07-29 09:20:00,83.3,79.7,29.99,South,180,2.3,2.3,89,0.00,CLR,,0.00,WeatherDisplay:10.37,2013-07-29 14:20:00,
2013-07-29 09:24:00,37.6,37.3,30.09,West,270,2.2,2.2,99,0.00,,,0.06,Cumulus v1.9.2,2013-07-29 14:24:00,
2013-07-29 09:25:00,83.5,79.5,29.99,SW,225,1.1,1.1,88,0.00,CLR,,0.00,WeatherDisplay:10.37,2013-07-29 14:25:00,
2013-07-29 09:31:00,83.7,79.0,29.99,South,180,1.1,0.0,86,0.00,CLR,,0.00,WeatherDisplay:10.37,2013-07-29 14:31:00,
2013-07-29 09:36:00,83.8,79.6,29.99,SW,225,1.1,0.0,87,0.00,CLR,,0.00,WeatherDisplay:10.37,2013-07-29 14:36:00,
2013-07-29 09:41:00,84.4,79.7,29.99,West,270,1.1,1.1,86,0.00,CLR,,0.00,WeatherDisplay:10.37,2013-07-29 14:41:00,
2013-07-29 09:46:00,84.6,79.2,29.99,North,0,2.3,0.0,84,0.00,CLR,,0.00,WeatherDisplay:10.37,2013-07-29 14:46:00,
2013-07-29 09:51:00,84.9,78.4,29.99,South,180,3.5,3.5,81,0.00,CLR,,0.00,WeatherDisplay:10.37,2013-07-29 14:51:00,
2013-07-29 09:54:00,37.0,36.8,30.08,SW,225,6.9,6.9,99,0.00,,,0.06,Cumulus v1.9.2,2013-07-29 14:54:00,
2013-07-29 09:56:00,85.5,77.8,29.99,North,0,2.3,0.0,78,0.00,CLR,,0.00,WeatherDisplay:10.37,2013-07-29 14:56:00,
2013-07-29 10:02:00,85.8,77.8,29.99,NW,315,2.3,2.3,77,0.00,CLR,,0.00,WeatherDisplay:10.37,2013-07-29 15:02:00,
2013-07-29 10:07:00,86.0,77.5,29.99,North,0,1.1,0.0,76,0.00,CLR,,0.00,WeatherDisplay:10.37,2013-07-29 15:07:00,
2013-07-29 10:12:00,86.0,77.5,29.99,SW,225,1.1,0.0,76,0.00,CLR,,0.00,WeatherDisplay:10.37,2013-07-29 15:12:00,
2013-07-29 10:17:00,86.0,77.1,29.99,SW,225,1.1,0.0,75,0.00,CLR,,0.00,WeatherDisplay:10.37,2013-07-29 15:17:00,
2013-07-29 10:23:00,87.4,77.7,30.00,WSW,248,1.1,1.1,73,0.00,CLR,,0.00,WeatherDisplay:10.37,2013-07-29 15:23:00,
2013-07-29 10:24:00,37.4,36.4,30.07,South,180,2.2,2.2,96,0.00,,,0.06,Cumulus v1.9.2,2013-07-29 15:24:00,
2013-07-29 10:28:00,88.0,77.8,29.99,SW,225,3.5,3.5,72,0.00,CLR,,0.00,WeatherDisplay:10.37,2013-07-29 15:28:00,
2013-07-29 10:34:00,87.6,76.2,29.99,North,0,2.3,2.3,69,0.00,CLR,,0.00,WeatherDisplay:10.37,2013-07-29 15:34:00,
2013-07-29 10:40:00,88.0,77.0,29.99,West,270,5.8,5.8,70,0.00,CLR,,0.00,WeatherDisplay:10.37,2013-07-29 15:40:00,
2013-07-29 10:45:00,89.4,77.5,29.99,North,0,3.5,3.5,68,0.00,CLR,,0.00,WeatherDisplay:10.37,2013-07-29 15:45:00,
2013-07-29 10:50:00,89.8,76.9,29.99,SE,135,1.1,0.0,66,0.00,CLR,,0.00,WeatherDisplay:10.37,2013-07-29 15:50:00,
2013-07-29 10:54:00,37.9,36.9,30.07,West,270,2.2,2.2,96,0.00,,,0.06,Cumulus v1.9.2,2013-07-29 15:54:00,
2013-07-29 10:55:00,90.7,76.3,29.99,SE,135,2.3,2.3,63,0.00,CLR,,0.00,WeatherDisplay:10.37,2013-07-29 15:55:00,
2013-07-29 11:00:00,90.9,76.0,29.99,SW,225,2.3,2.3,62,0.00,CLR,,0.00,WeatherDisplay:10.37,2013-07-29 16:00:00,
2013-07-29 11:05:00,91.4,76.5,29.99,North,0,2.3,2.3,62,0.00,CLR,,0.00,WeatherDisplay:10.37,2013-07-29 16:05:00,
2013-07-29 11:10:00,92.1,77.2,29.99,SW,225,3.5,3.5,62,0.00,CLR,,0.00,WeatherDisplay:10.37,2013-07-29 16:10:00,
2013-07-29 11:17:00,92.5,76.6,29.99,South,180,4.6,4.6,60,0.00,CLR,,0.00,WeatherDisplay:10.37,2013-07-29 16:17:00,
2013-07-29 11:22:00,92.8,76.4,29.99,SE,135,2.3,2.3,59,0.00,CLR,,0.00,WeatherDisplay:10.37,2013-07-29 16:22:00,
2013-07-29 11:24:00,37.4,36.1,30.08,SW,225,3.8,3.8,95,0.00,,,0.06,Cumulus v1.9.2,2013-07-29 16:24:00,
2013-07-29 11:27:00,92.7,75.7,29.99,SE,135,3.5,0.0,58,0.00,CLR,,0.00,WeatherDisplay:10.37,2013-07-29 16:27:00,
2013-07-29 11:32:00,93.2,76.7,29.99,SW,225,2.3,2.3,59,0.00,CLR,,0.00,WeatherDisplay:10.37,2013-07-29 16:32:00,
2013-07-29 11:37:00,93.2,75.7,29.99,East,90,2.3,0.0,57,0.00,CLR,,0.00,WeatherDisplay:10.37,2013-07-29 16:37:00,
2013-07-29 11:42:00,93.4,75.3,29.98,North,0,2.3,2.3,56,0.00,CLR,,0.00,WeatherDisplay:10.37,2013-07-29 16:42:00,
2013-07-29 11:47:00,93.6,75.5,29.98,West,270,3.5,3.5,56,0.00,CLR,,0.00,WeatherDisplay:10.37,2013-07-29 16:47:00,
2013-07-29 11:52:00,93.7,76.2,29.98,NE,45,2.3,2.3,57,0.00,CLR,,0.00,WeatherDisplay:10.37,2013-07-29 16:52:00,
2013-07-29 11:54:00,37.4,36.6,30.07,SW,225,2.2,2.2,97,0.00,,,0.06,Cumulus v1.9.2,2013-07-29 16:54:00,
2013-07-29 11:58:00,94.1,75.5,29.98,NNE,22,3.5,3.5,55,0.00,CLR,,0.00,WeatherDisplay:10.37,2013-07-29 16:58:00,
2013-07-29 12:03:00,94.6,75.4,29.98,SE,135,1.1,1.1,54,0.00,CLR,,0.00,WeatherDisplay:10.37,2013-07-29 17:03:00,
2013-07-29 12:08:00,95.2,73.6,29.97,SE,135,3.8,3.8,50,0.00,CLR,,0.00,WeatherDisplay:10.37,2013-07-29 17:08:00,
2013-07-29 12:13:00,95.2,73.6,29.97,North,0,1.1,1.1,50,0.00,CLR,,0.00,WeatherDisplay:10.37,2013-07-29 17:13:00,
2013-07-29 12:18:00,95.4,72.6,29.97,SE,135,3.5,0.0,48,0.00,CLR,,0.00,WeatherDisplay:10.37,2013-07-29 17:18:00,
2013-07-29 12:23:00,95.0,74.6,29.97,NW,315,2.3,2.3,52,0.00,CLR,,0.00,WeatherDisplay:10.37,2013-07-29 17:23:00,
2013-07-29 12:24:00,37.6,36.8,30.08,West,270,0.7,0.7,97,0.00,,,0.06,Cumulus v1.9.2,2013-07-29 17:24:00,
2013-07-29 12:28:00,93.6,73.9,29.97,SE,135,1.1,0.0,53,0.00,CLR,,0.00,WeatherDisplay:10.37,2013-07-29 17:28:00,
2013-07-29 12:33:00,93.6,75.5,29.97,NE,45,1.1,1.1,56,0.00,CLR,,0.00,WeatherDisplay:10.37,2013-07-29 17:33:00,
2013-07-29 12:38:00,94.5,72.3,29.97,West,270,3.5,3.5,49,0.00,CLR,,0.00,WeatherDisplay:10.37,2013-07-29 17:38:00,
2013-07-29 12:43:00,94.8,72.7,29.97,NE,45,3.5,3.5,49,0.00,CLR,,0.00,WeatherDisplay:10.37,2013-07-29 17:43:00,
2013-07-29 12:48:00,95.0,75.2,29.97,West,270,4.6,4.6,53,0.00,CLR,,0.00,WeatherDisplay:10.37,2013-07-29 17:48:00,
2013-07-29 12:53:00,95.2,74.2,29.97,East,90,4.6,4.6,51,0.00,CLR,,0.00,WeatherDisplay:10.37,2013-07-29 17:53:00,
2013-07-29 12:54:00,37.6,37.1,30.09,West,270,2.2,2.2,98,0.00,,,0.06,Cumulus v1.9.2,2013-07-29 17:54:00,
2013-07-29 12:58:00,95.2,74.2,29.97,West,270,2.3,2.3,51,0.00,CLR,,0.00,WeatherDisplay:10.37,2013-07-29 17:58:00,
2013-07-29 13:04:00,95.5,73.9,29.98,SW,225,1.1,0.0,50,0.00,CLR,,0.00,WeatherDisplay:10.37,2013-07-29 18:04:00,
2013-07-29 13:09:00,94.8,73.3,29.97,NE,45,1.1,0.0,50,0.00,CLR,,0.00,WeatherDisplay:10.37,2013-07-29 18:09:00,
2013-07-29 13:14:00,94.5,74.7,29.97,NW,315,3.5,3.5,53,0.00,CLR,,0.00,WeatherDisplay:10.37,2013-07-29 18:14:00,
2013-07-29 13:19:00,94.8,70.8,29.97,West,270,2.3,0.0,46,0.00,CLR,,0.00,WeatherDisplay:10.37,2013-07-29 18:19:00,
2013-07-29 13:24:00,94.8,71.4,29.97,SW,225,1.1,1.1,47,0.00,CLR,,0.00,WeatherDisplay:10.37,2013-07-29 18:24:00,
2013-07-29 13:29:00,95.0,72.8,29.97,SW,225,3.5,0.0,49,0.00,CLR,,0.00,WeatherDisplay:10.37,2013-07-29 18:29:00,
2013-07-29 13:34:00,94.8,72.7,29.97,SW,225,1.1,0.0,49,0.00,CLR,,0.00,WeatherDisplay:10.37,2013-07-29 18:34:00,
2013-07-29 13:39:00,93.9,71.2,29.97,North,0,2.3,0.0,48,0.00,CLR,,0.00,WeatherDisplay:10.37,2013-07-29 18:39:00,
2013-07-29 13:44:00,93.7,70.5,29.96,North,349,0.0,4.0,47,0.00,CLR,,0.00,WeatherDisplay:10.37,2013-07-29 18:44:00,
2013-07-29 13:49:00,93.0,71.0,29.96,NNW,344,0.0,2.0,49,0.00,CLR,,0.00,WeatherDisplay:10.37,2013-07-29 18:49:00,
2013-07-29 13:54:00,92.8,72.6,29.96,NE,53,1.0,2.0,52,0.00,CLR,,0.00,WeatherDisplay:10.37,2013-07-29 18:54:00,
2013-07-29 13:59:00,93.1,70.5,29.96,NE,41,0.0,2.0,48,0.00,CLR,,0.00,WeatherDisplay:10.37,2013-07-29 18:59:00,
2013-07-29 14:04:00,93.6,70.9,29.96,NE,45,1.1,0.0,48,0.00,CLR,,0.00,WeatherDisplay:10.37,2013-07-29 19:04:00,
2013-07-29 14:09:00,93.9,71.9,29.96,NE,45,1.1,1.1,49,0.00,CLR,,0.00,WeatherDisplay:10.37,2013-07-29 19:09:00,
2013-07-29 14:14:00,93.9,71.2,29.96,NE,45,1.1,1.1,48,0.00,CLR,,0.00,WeatherDisplay:10.37,2013-07-29 19:14:00,
2013-07-29 14:20:00,93.2,70.6,29.95,NE,45,1.1,0.0,48,0.00,CLR,,0.00,WeatherDisplay:10.37,2013-07-29 19:20:00,
2013-07-29 14:24:00,37.6,37.1,30.12,South,180,2.2,2.2,98,0.00,,,0.06,Cumulus v1.9.2,2013-07-29 19:24:00,
2013-07-29 14:25:00,92.8,70.9,29.95,NE,45,2.3,0.0,49,0.00,CLR,,0.00,WeatherDisplay:10.37,2013-07-29 19:25:00,
2013-07-29 14:30:00,93.9,71.2,29.95,South,180,1.1,1.1,48,0.00,CLR,,0.00,WeatherDisplay:10.37,2013-07-29 19:30:00,
2013-07-29 14:35:00,94.5,71.1,29.95,North,0,1.1,1.1,47,0.00,CLR,,0.00,WeatherDisplay:10.37,2013-07-29 19:35:00,
2013-07-29 14:40:00,96.4,73.5,29.95,West,270,3.5,3.5,48,0.00,CLR,,0.00,WeatherDisplay:10.37,2013-07-29 19:40:00,
2013-07-29 14:45:00,97.5,72.6,29.95,East,90,2.3,0.0,45,0.00,CLR,,0.00,WeatherDisplay:10.37,2013-07-29 19:45:00,
2013-07-29 14:50:00,99.0,69.7,29.95,ENE,68,1.1,0.0,39,0.00,CLR,,0.00,WeatherDisplay:10.37,2013-07-29 19:50:00,
2013-07-29 14:54:00,37.6,37.1,30.14,SW,225,0.7,0.7,98,0.00,,,0.06,Cumulus v1.9.2,2013-07-29 19:54:00,
2013-07-29 14:55:00,100.0,71.4,29.95,West,270,3.5,3.5,40,0.00,CLR,,0.00,WeatherDisplay:10.37,2013-07-29 19:55:00,
2013-07-29 15:00:00,100.9,68.3,29.95,East,90,3.5,3.5,35,0.00,CLR,,0.00,WeatherDisplay:10.37,2013-07-29 20:00:00,
2013-07-29 15:05:00,100.9,66.6,29.95,SE,135,3.5,0.0,33,0.00,CLR,,0.00,WeatherDisplay:10.37,2013-07-29 20:05:00,
2013-07-29 15:10:00,100.9,68.3,29.95,East,90,1.1,1.1,35,0.00,CLR,,0.00,WeatherDisplay:10.37,2013-07-29 20:10:00,
2013-07-29 15:15:00,99.9,67.3,29.95,SE,135,1.1,0.0,35,0.00,CLR,,0.00,WeatherDisplay:10.37,2013-07-29 20:15:00,
2013-07-29 15:20:00,100.0,67.5,29.94,South,180,1.1,0.0,35,0.00,CLR,,0.00,WeatherDisplay:10.37,2013-07-29 20:20:00,
2013-07-29 15:24:00,37.8,37.5,30.14,West,270,0.0,0.0,99,0.00,,,0.06,Cumulus v1.9.2,2013-07-29 20:24:00,
2013-07-29 15:25:00,100.8,65.5,29.94,SE,135,3.5,3.5,32,0.00,CLR,,0.00,WeatherDisplay:10.37,2013-07-29 20:25:00,
2013-07-29 15:30:00,100.9,69.9,29.94,North,0,1.1,1.1,37,0.00,CLR,,0.00,WeatherDisplay:10.37,2013-07-29 20:30:00,
2013-07-29 15:35:00,99.9,69.7,29.94,NW,315,1.1,0.0,38,0.00,CLR,,0.00,WeatherDisplay:10.37,2013-07-29 20:35:00,
2013-07-29 15:40:00,97.7,69.3,29.94,SE,135,1.1,0.0,40,0.00,CLR,,0.00,WeatherDisplay:10.37,2013-07-29 20:40:00,
2013-07-29 15:46:00,95.4,71.9,29.94,NW,315,1.1,0.0,47,0.00,CLR,,0.00,WeatherDisplay:10.37,2013-07-29 20:46:00,
2013-07-29 15:51:00,93.9,73.0,29.94,NW,315,1.6,0.0,51,0.00,CLR,,0.00,WeatherDisplay:10.37,2013-07-29 20:51:00,
2013-07-29 15:54:00,37.8,37.5,30.15,West,270,0.0,0.0,99,0.00,,,0.06,Cumulus v1.9.2,2013-07-29 20:54:00,
2013-07-29 15:56:00,93.4,73.7,29.94,South,180,1.1,0.0,53,0.00,CLR,,0.00,WeatherDisplay:10.37,2013-07-29 20:56:00,
2013-07-29 16:01:00,94.1,74.4,29.94,West,270,1.6,1.6,53,0.00,CLR,,0.00,WeatherDisplay:10.37,2013-07-29 21:01:00,
2013-07-29 16:06:00,95.5,72.7,29.94,NW,315,1.1,0.0,48,0.00,CLR,,0.00,WeatherDisplay:10.37,2013-07-29 21:06:00,
2013-07-29 16:11:00,96.8,71.3,29.94,SE,135,1.1,0.0,44,0.00,CLR,,0.00,WeatherDisplay:10.37,2013-07-29 21:11:00,
2013-07-29 16:16:00,97.2,70.2,29.93,East,90,2.3,2.3,42,0.00,CLR,,0.00,WeatherDisplay:10.37,2013-07-29 21:16:00,
2013-07-29 16:21:00,96.4,65.1,29.94,SW,225,4.6,4.6,36,0.00,CLR,,0.00,WeatherDisplay:10.37,2013-07-29 21:21:00,
2013-07-29 16:24:00,37.9,37.7,30.15,NW,315,1.6,1.6,99,0.00,,,0.06,Cumulus v1.9.2,2013-07-29 21:24:00,
2013-07-29 16:26:00,95.9,68.4,29.94,SSW,202,1.1,0.0,41,0.00,CLR,,0.00,WeatherDisplay:10.37,2013-07-29 21:26:00,
2013-07-29 16:31:00,95.9,67.0,29.94,NW,315,3.5,0.0,39,0.00,CLR,,0.00,WeatherDisplay:10.37,2013-07-29 21:31:00,
2013-07-29 16:36:00,96.1,70.6,29.94,South,180,1.1,0.0,44,0.00,CLR,,0.00,WeatherDisplay:10.37,2013-07-29 21:36:00,
2013-07-29 16:41:00,95.5,71.5,29.94,SW,225,1.1,1.1,46,0.00,CLR,,0.00,WeatherDisplay:10.37,2013-07-29 21:41:00,
2013-07-29 16:46:00,94.8,72.7,29.94,North,0,1.1,0.0,49,0.00,CLR,,0.00,WeatherDisplay:10.37,2013-07-29 21:46:00,
2013-07-29 16:51:00,94.3,70.3,29.93,North,0,1.1,0.0,46,0.00,CLR,,0.00,WeatherDisplay:10.37,2013-07-29 21:51:00,
2013-07-29 16:57:00,94.5,71.1,29.94,North,0,1.1,0.0,47,0.00,CLR,,0.00,WeatherDisplay:10.37,2013-07-29 21:57:00,
2013-07-29 17:02:00,94.5,71.7,29.94,North,0,0.0,0.0,48,0.00,CLR,,0.00,WeatherDisplay:10.37,2013-07-29 22:02:00,
2013-07-29 17:07:00,93.9,70.0,29.93,North,0,1.1,0.0,46,0.00,CLR,,0.00,WeatherDisplay:10.37,2013-07-29 22:07:00,
2013-07-29 17:13:00,92.8,73.2,29.93,NW,315,1.1,0.0,53,0.00,CLR,,0.00,WeatherDisplay:10.37,2013-07-29 22:13:00,
2013-07-29 17:18:00,92.3,73.2,29.93,West,270,1.1,0.0,54,0.00,CLR,,0.00,WeatherDisplay:10.37,2013-07-29 22:18:00,
2013-07-29 17:23:00,92.3,74.3,29.93,West,270,1.1,0.0,56,0.00,CLR,,0.00,WeatherDisplay:10.37,2013-07-29 22:23:00,
2013-07-29 17:28:00,92.8,73.7,29.93,South,180,1.1,0.0,54,0.00,CLR,,0.00,WeatherDisplay:10.37,2013-07-29 22:28:00,
2013-07-29 17:33:00,93.2,72.4,29.93,South,180,1.1,0.0,51,0.00,CLR,,0.00,WeatherDisplay:10.37,2013-07-29 22:33:00,
2013-07-29 17:38:00,93.4,71.4,29.93,NE,45,1.1,0.0,49,0.00,CLR,,0.00,WeatherDisplay:10.37,2013-07-29 22:38:00,
2013-07-29 17:43:00,93.6,74.4,29.93,West,270,1.1,0.0,54,0.00,CLR,,0.00,WeatherDisplay:10.37,2013-07-29 22:43:00,
2013-07-29 17:48:00,93.7,71.7,29.93,North,0,1.1,0.0,49,0.00,CLR,,0.00,WeatherDisplay:10.37,2013-07-29 22:48:00,
2013-07-29 17:53:00,93.7,74.6,29.93,SW,225,1.1,0.0,54,0.00,CLR,,0.00,WeatherDisplay:10.37,2013-07-29 22:53:00,
2013-07-29 17:58:00,93.7,74.0,29.93,NE,45,1.1,0.0,53,0.00,CLR,,0.00,WeatherDisplay:10.37,2013-07-29 22:58:00,
2013-07-29 18:03:00,93.2,73.5,29.93,North,0,1.1,0.0,53,0.00,CLR,,0.00,WeatherDisplay:10.37,2013-07-29 23:03:00,
2013-07-29 18:08:00,93.0,73.9,29.93,West,270,1.1,0.0,54,0.00,CLR,,0.00,WeatherDisplay:10.37,2013-07-29 23:08:00,
2013-07-29 18:13:00,92.8,74.3,29.93,West,270,1.1,1.1,55,0.00,CLR,,0.00,WeatherDisplay:10.37,2013-07-29 23:13:00,
2013-07-29 18:18:00,92.1,73.1,29.93,WSW,248,1.1,0.0,54,0.00,CLR,,0.00,WeatherDisplay:10.37,2013-07-29 23:18:00,
2013-07-29 18:23:00,91.8,73.3,29.93,NE,45,2.3,2.3,55,0.00,CLR,,0.00,WeatherDisplay:10.37,2013-07-29 23:23:00,
2013-07-29 18:29:00,91.4,72.4,29.93,WNW,292,2.3,0.0,54,0.00,CLR,,0.00,WeatherDisplay:10.37,2013-07-29 23:29:00,
2013-07-29 18:34:00,91.0,74.2,29.93,NE,45,1.1,0.0,58,0.00,CLR,,0.00,WeatherDisplay:10.37,2013-07-29 23:34:00,
2013-07-29 18:39:00,90.7,73.9,29.93,NW,315,1.1,0.0,58,0.00,CLR,,0.00,WeatherDisplay:10.37,2013-07-29 23:39:00,
2013-07-29 18:44:00,90.5,74.2,29.93,East,90,1.1,0.0,59,0.00,CLR,,0.00,WeatherDisplay:10.37,2013-07-29 23:44:00,
2013-07-29 18:49:00,89.6,73.4,29.93,North,0,1.1,0.0,59,0.00,CLR,,0.00,WeatherDisplay:10.37,2013-07-29 23:49:00,
2013-07-29 18:54:00,89.2,74.0,29.93,North,0,1.1,0.0,61,0.00,CLR,,0.00,WeatherDisplay:10.37,2013-07-29 23:54:00,
2013-07-29 18:59:00,88.9,74.2,29.93,SW,225,1.6,0.0,62,0.00,CLR,,0.00,WeatherDisplay:10.37,2013-07-29 23:59:00,
2013-07-29 19:04:00,88.7,74.5,29.93,NW,315,1.1,0.0,63,0.00,CLR,,0.00,WeatherDisplay:10.37,2013-07-30 00:04:00,
2013-07-29 19:09:00,88.2,74.4,29.93,East,90,2.3,0.0,64,0.00,CLR,,0.00,WeatherDisplay:10.37,2013-07-30 00:09:00,
2013-07-29 19:14:00,88.0,74.7,29.93,East,90,0.0,0.0,65,0.00,CLR,,0.00,WeatherDisplay:10.37,2013-07-30 00:14:00,
2013-07-29 19:19:00,87.6,74.9,29.93,East,90,0.0,0.0,66,0.00,CLR,,0.00,WeatherDisplay:10.37,2013-07-30 00:19:00,
2013-07-29 19:24:00,87.3,74.5,29.93,East,90,1.1,0.0,66,0.00,CLR,,0.00,WeatherDisplay:10.37,2013-07-30 00:24:00,
2013-07-29 19:29:00,87.1,74.8,29.92,East,90,0.0,1.0,67,0.00,CLR,,0.00,WeatherDisplay:10.37,2013-07-30 00:29:00,
2013-07-29 19:34:00,86.7,74.4,29.92,East,90,0.0,0.0,67,0.00,CLR,,0.00,WeatherDisplay:10.37,2013-07-30 00:34:00,
2013-07-29 19:39:00,86.4,74.5,29.92,East,90,0.0,0.0,68,0.00,CLR,,0.00,WeatherDisplay:10.37,2013-07-30 00:39:00,
2013-07-29 19:44:00,86.0,74.6,29.93,East,90,0.0,0.0,69,0.00,CLR,,0.00,WeatherDisplay:10.37,2013-07-30 00:44:00,
2013-07-29 19:49:00,85.5,74.2,29.93,East,90,0.0,0.0,69,0.00,CLR,,0.00,WeatherDisplay:10.37,2013-07-30 00:49:00,
2013-07-29 19:54:00,85.2,74.3,29.93,East,90,0.0,0.0,70,0.00,CLR,,0.00,WeatherDisplay:10.37,2013-07-30 00:54:00,
2013-07-29 19:59:00,84.7,74.3,29.93,East,90,0.0,0.0,71,0.00,CLR,,0.00,WeatherDisplay:10.37,2013-07-30 00:59:00,
2013-07-29 20:04:00,84.4,73.9,29.93,East,90,0.0,0.0,71,0.00,CLR,,0.00,WeatherDisplay:10.37,2013-07-30 01:04:00,
2013-07-29 20:09:00,83.8,73.8,29.93,East,90,0.0,0.0,72,0.00,CLR,,0.00,WeatherDisplay:10.37,2013-07-30 01:09:00,
2013-07-29 20:14:00,83.7,73.7,29.93,East,90,0.0,0.0,72,0.00,CLR,,0.00,WeatherDisplay:10.37,2013-07-30 01:14:00,
2013-07-29 20:19:00,83.1,74.0,29.93,West,270,0.0,0.0,74,0.00,CLR,,0.00,WeatherDisplay:10.37,2013-07-30 01:19:00,
2013-07-29 20:25:00,82.8,74.0,29.93,West,270,1.1,0.0,75,0.00,CLR,,0.00,WeatherDisplay:10.37,2013-07-30 01:25:00,
2013-07-29 20:30:00,82.6,73.8,29.93,West,270,0.0,0.0,75,0.00,CLR,,0.00,WeatherDisplay:10.37,2013-07-30 01:30:00,
2013-07-29 20:35:00,82.2,73.5,29.93,West,270,0.0,0.0,75,0.00,CLR,,0.00,WeatherDisplay:10.37,2013-07-30 01:35:00,
2013-07-29 20:40:00,82.0,73.7,29.93,West,270,0.0,0.0,76,0.00,CLR,,0.00,WeatherDisplay:10.37,2013-07-30 01:40:00,
2013-07-29 20:45:00,81.9,73.5,29.93,East,90,0.0,0.0,76,0.00,CLR,,0.00,WeatherDisplay:10.37,2013-07-30 01:45:00,
2013-07-29 20:51:00,81.7,73.8,29.93,East,90,0.0,0.0,77,0.00,CLR,,0.00,WeatherDisplay:10.37,2013-07-30 01:51:00,
2013-07-29 20:56:00,81.5,74.0,29.94,East,90,0.0,0.0,78,0.00,CLR,,0.00,WeatherDisplay:10.37,2013-07-30 01:56:00,
2013-07-29 21:01:00,81.5,74.0,29.94,East,90,0.0,0.0,78,0.00,CLR,,0.00,WeatherDisplay:10.37,2013-07-30 02:01:00,
2013-07-29 21:06:00,81.3,73.4,29.94,East,90,0.0,0.0,77,0.00,CLR,,0.00,WeatherDisplay:10.37,2013-07-30 02:06:00,
2013-07-29 21:12:00,81.1,73.6,29.94,East,90,0.0,0.0,78,0.00,CLR,,0.00,WeatherDisplay:10.37,2013-07-30 02:12:00,
2013-07-29 21:17:00,81.1,73.6,29.95,East,90,0.0,0.0,78,0.00,CLR,,0.00,WeatherDisplay:10.37,2013-07-30 02:17:00,
2013-07-29 21:22:00,81.0,73.5,29.95,East,90,0.0,0.0,78,0.00,CLR,,0.00,WeatherDisplay:10.37,2013-07-30 02:22:00,
2013-07-29 21:27:00,80.8,73.7,29.95,SW,225,0.0,0.0,79,0.00,CLR,,0.00,WeatherDisplay:10.37,2013-07-30 02:27:00,
2013-07-29 21:32:00,80.8,73.7,29.95,SW,225,0.0,0.0,79,0.00,CLR,,0.00,WeatherDisplay:10.37,2013-07-30 02:32:00,
2013-07-29 21:37:00,80.6,73.5,29.95,SW,225,0.0,0.0,79,0.00,CLR,,0.00,WeatherDisplay:10.37,2013-07-30 02:37:00,
2013-07-29 21:42:00,80.6,73.9,29.96,SW,225,0.0,0.0,80,0.00,CLR,,0.00,WeatherDisplay:10.37,2013-07-30 02:42:00,
2013-07-29 21:47:00,80.6,73.9,29.95,SW,225,1.1,0.0,80,0.00,CLR,,0.00,WeatherDisplay:10.37,2013-07-30 02:47:00,
2013-07-29 21:52:00,80.4,73.7,29.96,SW,225,0.0,0.0,80,0.00,CLR,,0.00,WeatherDisplay:10.37,2013-07-30 02:52:00,
2013-07-29 21:57:00,80.4,73.7,29.96,SW,225,0.0,0.0,80,0.00,CLR,,0.00,WeatherDisplay:10.37,2013-07-30 02:57:00,
2013-07-29 22:02:00,80.4,73.7,29.96,SW,225,0.0,0.0,80,0.00,CLR,,0.00,WeatherDisplay:10.37,2013-07-30 03:02:00,
2013-07-29 22:07:00,80.4,74.1,29.96,SW,225,0.0,0.0,81,0.00,CLR,,0.00,WeatherDisplay:10.37,2013-07-30 03:07:00,
2013-07-29 22:12:00,80.2,73.9,29.96,SE,135,1.1,0.0,81,0.00,CLR,,0.00,WeatherDisplay:10.37,2013-07-30 03:12:00,
2013-07-29 22:17:00,80.4,74.4,29.96,SE,135,0.0,0.0,82,0.00,CLR,,0.00,WeatherDisplay:10.37,2013-07-30 03:17:00,
2013-07-29 22:22:00,80.2,74.2,29.97,SE,135,0.0,0.0,82,0.00,CLR,,0.00,WeatherDisplay:10.37,2013-07-30 03:22:00,
2013-07-29 22:27:00,80.2,74.2,29.96,SE,135,0.0,0.0,82,0.00,CLR,,0.00,WeatherDisplay:10.37,2013-07-30 03:27:00,
2013-07-29 22:33:00,80.1,74.1,29.97,South,180,0.0,0.0,82,0.00,CLR,,0.00,WeatherDisplay:10.37,2013-07-30 03:33:00,
2013-07-29 22:38:00,80.1,74.1,29.97,South,180,0.0,0.0,82,0.00,CLR,,0.00,WeatherDisplay:10.37,2013-07-30 03:38:00,
2013-07-29 22:43:00,79.9,74.3,29.98,SE,135,0.0,0.0,83,0.00,CLR,,0.00,WeatherDisplay:10.37,2013-07-30 03:43:00,
2013-07-29 22:48:00,79.9,74.3,29.97,SE,135,0.0,0.0,83,0.00,CLR,,0.00,WeatherDisplay:10.37,2013-07-30 03:48:00,
2013-07-29 22:53:00,79.7,74.1,29.98,NW,315,0.0,0.0,83,0.00,CLR,,0.00,WeatherDisplay:10.37,2013-07-30 03:53:00,
2013-07-29 22:58:00,79.7,74.1,29.98,NW,315,0.0,0.0,83,0.00,CLR,,0.00,WeatherDisplay:10.37,2013-07-30 03:58:00,
2013-07-29 23:01:00,79.7,74.1,29.98,NW,315,0.0,0.0,83,0.00,CLR,,0.00,WeatherDisplay:10.37,2013-07-30 04:01:00,
2013-07-29 23:03:00,79.7,74.4,29.99,NW,315,0.0,0.0,84,0.00,CLR,,0.00,WeatherDisplay:10.37,2013-07-30 04:03:00,
2013-07-29 23:04:00,79.5,73.9,29.98,NW,315,0.0,0.0,83,0.00,CLR,,0.00,WeatherDisplay:10.37,2013-07-30 04:04:00,
2013-07-29 23:06:00,79.5,74.3,29.98,NW,315,0.0,0.0,84,0.00,CLR,,0.00,WeatherDisplay:10.37,2013-07-30 04:06:00,
2013-07-29 23:11:00,79.5,74.3,29.98,NW,315,0.0,0.0,84,0.00,CLR,,0.00,WeatherDisplay:10.37,2013-07-30 04:11:00,
2013-07-29 23:16:00,79.3,74.1,29.98,NW,315,0.0,0.0,84,0.00,CLR,,0.00,WeatherDisplay:10.37,2013-07-30 04:16:00,
2013-07-29 23:21:00,79.3,74.1,29.98,NW,315,0.0,0.0,84,0.00,CLR,,0.00,WeatherDisplay:10.37,2013-07-30 04:21:00,
2013-07-29 23:26:00,79.3,74.4,29.99,NW,315,0.0,0.0,85,0.00,CLR,,0.00,WeatherDisplay:10.37,2013-07-30 04:26:00,
2013-07-29 23:31:00,79.2,74.3,29.99,NW,315,0.0,0.0,85,0.00,CLR,,0.00,WeatherDisplay:10.37,2013-07-30 04:31:00,
2013-07-29 23:36:00,79.0,74.1,29.99,East,90,0.0,0.0,85,0.00,CLR,,0.00,WeatherDisplay:10.37,2013-07-30 04:36:00,
2013-07-29 23:41:00,79.0,74.4,29.99,East,90,0.0,0.0,86,0.00,CLR,,0.00,WeatherDisplay:10.37,2013-07-30 04:41:00,
2013-07-29 23:46:00,79.0,74.4,29.99,East,90,0.0,0.0,86,0.00,CLR,,0.00,WeatherDisplay:10.37,2013-07-30 04:46:00,
2013-07-29 23:51:00,78.8,74.6,29.99,North,0,0.0,0.0,87,0.00,CLR,,0.00,WeatherDisplay:10.37,2013-07-30 04:51:00,
2013-07-29 23:55:00,32.2,31.9,30.17,South,180,3.1,3.1,99,0.00,,,0.06,Cumulus v1.9.2,2013-07-30 04:55:00,
2013-07-29 23:56:00,78.8,74.6,29.99,South,180,1.1,0.0,87,0.00,CLR,,0.00,WeatherDisplay:10.37,2013-07-30 04:56:00,